User: anonymous   Login
Location: Caltech
(34.1382°N, 118.1253°W)
Time: 21:08:02
(UTC-08:00)
Language:

deb Explorer IX - Orbit

View from above orbital plane
View from above orbital plane
View from above satellite
View from above satellite

Ground track
Ground track

The orbit data is extracted from the following two-line orbital elements,

1 00085U 61004C   14327.83180070  .00022406  00000-0  57422-2 0   759
2 00085 038.7655 247.9877 0437848 357.4962 002.3602 14.05169757642698
Epoch (UTC): 23 November 2014 19:57:47
Eccentricity: 0.0437848
inclination: 38.7655°
perigee height: 558 km
apogee height: 1193 km
right ascension of ascending node: 247.9877°
argument of perigee: 357.4962°
revolutions per day: 14.05169757
mean anomaly at epoch: 2.3602°
orbit number at epoch: 64269

The dashed part of the orbit path shows where the satellite is in the earth's shadow,  

DLR